Current Weather Conditions: station 66022

sailwx.info

Wind from 150 at 17 knots

Air temperature 6.7° C
Water temperature 9.0° C

Last reported at 2014-Nov-22 22:00 UTC.
Time now 2014-Nov-23 00:02 UTC

Location: N 54°06' E 014°12'.
View on Google Maps.

See reports from other nearby stations

  
Tides and Currents Weather Stations Pressure Air Temp Water Temp Dewpoint Dewpoint Depression Visibility Wind Speed Wind Dir Waves Ship Positions
date/time (UTC)wind fromknots sea level pressurealtimeterstation pressurevisibilityair tempwater tempwave heightnotes
2014-Nov-22 22:00 150 17 6.7 9.0
2014-Nov-22 21:00 150 17 6.7 9.0
2014-Nov-22 20:00 150 17 6.7 9.0
2014-Nov-22 19:00 140 15 6.7 9.0
2014-Nov-22 18:00 140 15 6.7 9.0
2014-Nov-22 17:00 130 17 6.6 9.0
2014-Nov-22 15:00 140 15 6.6 9.0
2014-Nov-22 14:00 150 13 6.6 9.0
2014-Nov-22 13:00 140 11 6.6 9.1
2014-Nov-22 12:00 130 11 6.2 9.1
2014-Nov-22 11:00 150 7 5.3 9.0
2014-Nov-22 10:00 140 7 4.4 8.9
2014-Nov-22 09:00 150 7 3.8 8.9
2014-Nov-22 07:00 170 3 3.5 8.9
2014-Nov-22 05:00 190 5 3.8 9.0
2014-Nov-22 04:00 190 9 4.2 9.0
2014-Nov-22 03:00 270 7 4.4 9.1
2014-Nov-22 02:00 190 7 4.8 9.1
2014-Nov-22 01:00 200 7 5.2 9.2
2014-Nov-22 00:00 200 7 5.6 9.2
2014-Nov-21 23:00 190 9 5.8 9.2
2014-Nov-21 21:00 190 9 6.8 9.2
2014-Nov-21 20:00 170 9 6.9 9.2
2014-Nov-21 19:00 170 9 6.9 9.2
2014-Nov-21 17:00 170 7 7.3 9.2
2014-Nov-21 16:00 170 7 7.4 9.2
2014-Nov-21 14:00 180 7 7.3 9.2
2014-Nov-21 13:00 210 3 7.2 9.2
2014-Nov-21 11:00 210 5 6.9 9.3
2014-Nov-21 10:00 210 5 7.0 9.3
2014-Nov-21 08:00 210 5 7.0 9.2
2014-Nov-21 05:00 220 5 7.1 9.3
2014-Nov-21 04:00 230 5 7.2 9.3
2014-Nov-21 03:00 200 3 7.4 9.3
2014-Nov-21 02:00 190 3 7.2 9.3
2014-Nov-21 01:00 180 1 7.1 9.3
2014-Nov-21 00:00 190 3 6.9 9.3